{"data":{"norad_id":54177,"epoch":"2026-05-25T00:46:04.284192Z","epoch_age_seconds":73037,"freshness":"FRESH","line1":"1 54177U 22141W   26145.03199403 -.00002542  00000+0 -14169-3 0  9999","line2":"2 54177  53.2141  21.3375 0001379  91.1667 268.9483 15.08829443197385","mean_motion":15.08829443,"eccentricity":0.0001379,"inclination_deg":53.2141,"raan_deg":21.3375,"arg_perigee_deg":91.1667,"mean_anomaly_deg":268.9483,"bstar":-0.00014169,"rev_number":19738,"period_min":95.43822243665,"perigee_km":538.82167752236,"apogee_km":540.72963783335,"semimajor_km":6917.9126576779,"source":"CELESTRAK","updated_at":"2026-05-25T13:38:17.663625Z"}}